Torrington, WY

10:11 AM MDT on July 21, 2017 (GMT -0600)
Torrington Municipal

Weather History for KTOR - September, 2013

Change the Weather History Date:

Wednesday, September 11, 2013

  Actual Average Record
Temperature  
Mean Temperature 62 °F 63 °F  
Max Temperature 65 °F 80 °F 93 °F (2016)
Min Temperature 58 °F 46 °F 33 °F (2014)
Degree Days  
Heating Degree Days 3 4  
Month to date heating degree days 3 31  
Since 1 July heating degree days 5 53  
Cooling Degree Days 0 2  
Month to date cooling degree days 104 31  
Year to date cooling degree days 877 664  
Growing Degree Days 10 (Base 50)    
Moisture  
Dew Point 59 °F    
Average Humidity 94    
Maximum Humidity 100    
Minimum Humidity 87    
Precipitation  
Precipitation 0.86 in 0.04 in 0.86 in (2013)
Month to date precipitation 1.08 0.51  
Year to date precipitation 7.89 11.47  
Sea Level Pressure  
Sea Level Pressure 30.19 in    
Wind  
Wind Speed 5 mph (North)    
Max Wind Speed 12 mph    
Max Gust Speed 16 mph    
Visibility 6 miles    
Events Rain    
T = Trace of Precipitation, MM = Missing Value Source: NWS Daily Summary

Daily Weather History Graph

Daily Weather History Graph

Search for Another Location

Airport or City:

Trip Planner

Search our weather history database for the weather conditions in past years. The results will help you decide how hot, cold, wet, or windy it might be!

Date:

Astronomy

Sep. 11, 2013 Rise Set
Actual Time 6:32 AM MDT 7:12 PM MDT
Civil Twilight 6:04 AM MDT 7:40 PM MDT
Nautical Twilight 5:31 AM MDT 8:14 PM MDT
Astronomical Twilight 4:56 AM MDT 8:48 PM MDT
Moon 1:10 PM MDT (9/11) 11:04 PM MDT (9/11)
Length of Visible Light 13h 36m
Length of Day
12h 39m
Waxing Crescent, 39% of the Moon is Illuminated
Sep 11
Waxing Crescent
Sep 12
First Quarter
Sep 19
Full
Sep 26
Last Quarter
Oct 4
New

Hourly Weather History & Observations

Time (MDT) Temp. Dew Point Humidity Pressure Visibility Wind Dir Wind Speed Gust Speed Precip Events Conditions
12:53 AM 63.0 °F 59.0 °F 87% 30.10 in 10.0 mi Calm Calm - 0.00 in Rain Light Rain
1:53 AM 62.1 °F 60.1 °F 93% 30.11 in 10.0 mi NNE 3.5 mph - 0.00 in   Overcast
2:53 AM 63.0 °F 60.1 °F 90% 30.10 in 10.0 mi Calm Calm - N/A   Overcast
3:53 AM 62.1 °F 60.1 °F 93% 30.10 in 8.0 mi NNW 3.5 mph - 0.00 in   Overcast
4:05 AM 62.6 °F 60.8 °F 94% 30.21 in 9.0 mi North 4.6 mph - N/A   Scattered Clouds
4:53 AM 61.0 °F 59.0 °F 93% 30.09 in 9.0 mi NNE 5.8 mph - N/A   Clear
5:53 AM 61.0 °F 59.0 °F 93% 30.10 in 8.0 mi NNW 4.6 mph - 0.00 in   Mostly Cloudy
6:53 AM 60.1 °F 59.0 °F 96% 30.12 in 8.0 mi SSE 3.5 mph - 0.01 in   Overcast
7:53 AM 62.1 °F 59.0 °F 90% 30.14 in 10.0 mi Calm Calm - N/A   Overcast
8:53 AM 63.0 °F 59.0 °F 87% 30.15 in 10.0 mi Calm Calm - N/A   Overcast
9:53 AM 64.9 °F 57.0 °F 75% 30.16 in 10.0 mi ESE 6.9 mph - 0.00 in Rain Light Rain
10:53 AM 63.0 °F 59.0 °F 87% 30.18 in 8.0 mi SE 5.8 mph - 0.02 in Rain Light Rain
11:53 AM 62.1 °F 59.0 °F 90% 30.19 in 5.0 mi Calm Calm - 0.07 in Rain Light Rain
12:53 PM 63.0 °F 61.0 °F 93% 30.19 in 8.0 mi North 4.6 mph - 0.01 in Rain Light Rain
1:53 PM 64.0 °F 60.1 °F 87% 30.18 in 10.0 mi North 3.5 mph - 0.00 in Rain Light Rain
2:53 PM 62.1 °F 60.1 °F 93% 30.18 in 5.0 mi NW 4.6 mph - 0.05 in Rain Light Rain
3:17 PM 62.6 °F 60.8 °F 94% 30.27 in 4.0 mi NNW 4.6 mph - 0.06 in Rain Light Rain
3:34 PM 60.8 °F 60.8 °F 100% 30.27 in 2.5 mi North 3.5 mph - 0.09 in Rain Rain
3:50 PM 60.8 °F 60.8 °F 100% 30.27 in 3.0 mi NNW 3.5 mph - 0.13 in Rain Light Rain
3:53 PM 61.0 °F 60.1 °F 97% 30.19 in 2.5 mi Calm Calm - 0.13 in Rain Rain
3:57 PM 60.8 °F 60.8 °F 100% 30.27 in 2.5 mi South 3.5 mph - 0.01 in Rain Light Rain
4:04 PM 60.8 °F 59.0 °F 94% 30.28 in 1.8 mi SSE 8.1 mph - 0.05 in Rain Rain
4:11 PM 59.0 °F 59.0 °F 100% 30.28 in 1.2 mi SE 4.6 mph - 0.11 in Rain Heavy Rain
4:18 PM 59.0 °F 59.0 °F 100% 30.28 in 1.5 mi ESE 8.1 mph - 0.15 in Rain Rain
4:42 PM 59.0 °F 55.4 °F 88% 30.27 in 1.8 mi NE 8.1 mph - 0.33 in Rain Rain
4:53 PM 59.0 °F 55.9 °F 90% 30.19 in 1.8 mi NNE 8.1 mph - 0.38 in Rain Rain
5:11 PM 59.0 °F 57.2 °F 94% 30.26 in 3.0 mi North 10.4 mph - 0.08 in Rain Rain
5:24 PM 59.0 °F 57.2 °F 94% 30.26 in 2.0 mi North 10.4 mph - 0.13 in Rain Rain
5:37 PM 60.8 °F 59.0 °F 94% 30.26 in 5.0 mi NNW 8.1 mph - 0.14 in Rain Light Rain
5:53 PM 59.0 °F 57.9 °F 96% 30.18 in 4.0 mi NNW 10.4 mph - 0.16 in Rain Rain
6:53 PM 59.0 °F 57.0 °F 93% 30.17 in 10.0 mi NNW 6.9 mph - 0.01 in   Overcast
7:53 PM 60.1 °F 57.0 °F 90% 30.18 in 10.0 mi North 9.2 mph - N/A   Overcast
8:53 PM 59.0 °F 57.9 °F 96% 30.19 in 10.0 mi NNW 6.9 mph - 0.02 in Rain Light Rain
9:53 PM 59.0 °F 57.9 °F 96% 30.20 in 10.0 mi WNW 4.6 mph - 0.00 in   Overcast
10:53 PM 57.9 °F 57.0 °F 97% 30.20 in 10.0 mi NW 5.8 mph - N/A   Overcast
11:53 PM 59.0 °F 57.0 °F 93% 30.21 in 10.0 mi NW 5.8 mph - N/A   Overcast